• Em Portugal
  • Lista de países
  • Para 7 dias
  • Temperatura da água
  • Mapas de satélite
  • Mapa do tempo
  • Widgets de tempo
  • user-avatar
    Iniciar Sessão

    Previsão horária em Pamporovo

    Hoje, 14 Novembro, Quarta-feira

    Tempo Temperatura Precipitação Vento Pressão Humidade
    00:00 0°C° 0 mm 1 m/s 630 mmHg 84%
    01:00 -1°C° 0 mm 1 m/s 630 mmHg 83%
    02:00 -1°C° 0 mm 1 m/s 630 mmHg 82%
    03:00 -1°C° 0 mm 1 m/s 629 mmHg 81%
    04:00 -1°C° 0 mm 1 m/s 629 mmHg 80%
    05:00 -1°C° 0 mm 1 m/s 629 mmHg 79%
    06:00 -1°C° 0 mm 1 m/s 629 mmHg 75%
    07:00 0°C° 0 mm 1 m/s 629 mmHg 72%
    08:00 0°C° 0 mm 1 m/s 629 mmHg 69%
    09:00 +2°C° 0 mm 1 m/s 630 mmHg 63%
    10:00 +4°C° 0 mm 1 m/s 630 mmHg 56%
    11:00 +6°C° 0 mm 1 m/s 631 mmHg 49%
    12:00 +7°C° 0 mm 1 m/s 631 mmHg 48%
    13:00 +7°C° 0 mm 1 m/s 631 mmHg 47%
    14:00 +7°C° 0 mm 2 m/s 630 mmHg 46%
    15:00 +7°C° 0 mm 1 m/s 630 mmHg 52%
    16:00 +5°C° 0 mm 1 m/s 629 mmHg 59%
    17:00 +4°C° 0 mm 1 m/s 628 mmHg 66%
    18:00 +3°C° 0 mm 1 m/s 628 mmHg 70%
    19:00 +2°C° 0 mm 1 m/s 628 mmHg 74%
    20:00 +2°C° 0 mm 1 m/s 628 mmHg 79%
    21:00 +1°C° 0 mm 1 m/s 628 mmHg 80%
    22:00 +1°C° 0 mm 1 m/s 628 mmHg 82%
    23:00 +1°C° 0 mm 1 m/s 628 mmHg 84%

    Amanhã, 15 Novembro, Quinta-feira

    Tempo Temperatura Precipitação Vento Pressão Humidade
    00:00 +1°C° 0 mm 1 m/s 627 mmHg 85%
    01:00 0°C° 0 mm 1 m/s 627 mmHg 85%
    02:00 0°C° 0 mm 1 m/s 627 mmHg 86%
    03:00 0°C° 0 mm 1 m/s 626 mmHg 85%
    04:00 0°C° 0 mm 1 m/s 626 mmHg 85%
    05:00 -1°C° 0 mm 1 m/s 626 mmHg 84%
    06:00 0°C° 0.2 mm 1 m/s 626 mmHg 82%
    07:00 -2°C° 0.2 mm 2 m/s 626 mmHg 81%
    08:00 -2°C° 0.2 mm 2 m/s 626 mmHg 79%
    09:00 -2°C° 0.8 mm 3 m/s 627 mmHg 77%
    10:00 -1°C° 0.8 mm 3 m/s 627 mmHg 76%
    11:00 -2°C° 0.8 mm 4 m/s 628 mmHg 74%
    12:00 -2°C° 0.1 mm 4 m/s 628 mmHg 69%
    13:00 -1°C° 0.1 mm 5 m/s 627 mmHg 65%
    14:00 -1°C° 0.1 mm 5 m/s 627 mmHg 60%
    15:00 -1°C° 0 mm 5 m/s 627 mmHg 63%
    16:00 -2°C° 0 mm 4 m/s 627 mmHg 66%
    17:00 -2°C° 0 mm 3 m/s 627 mmHg 69%
    18:00 -2°C° 0 mm 3 m/s 627 mmHg 71%
    19:00 -4°C° 0 mm 3 m/s 627 mmHg 73%
    20:00 -4°C° 0 mm 3 m/s 627 mmHg 76%
    21:00 -5°C° 0 mm 3 m/s 627 mmHg 76%
    22:00 -5°C° 0 mm 3 m/s 627 mmHg 76%
    23:00 -6°C° 0 mm 3 m/s 627 mmHg 76%

    Depois de amanhã, 16 Novembro, Sexta-feira

    Tempo Temperatura Precipitação Vento Pressão Humidade
    00:00 -6°C° 0 mm 3 m/s 627 mmHg 76%
    01:00 -6°C° 0 mm 3 m/s 627 mmHg 75%
    02:00 -6°C° 0 mm 3 m/s 627 mmHg 75%
    03:00 -6°C° 0 mm 3 m/s 627 mmHg 76%
    04:00 -6°C° 0 mm 3 m/s 627 mmHg 76%
    05:00 -6°C° 0 mm 3 m/s 627 mmHg 77%
    06:00 -6°C° 0 mm 3 m/s 627 mmHg 76%
    07:00 -6°C° 0 mm 3 m/s 628 mmHg 76%
    08:00 -5°C° 0 mm 2 m/s 628 mmHg 76%
    09:00 -5°C° 0 mm 3 m/s 629 mmHg 70%
    10:00 -2°C° 0 mm 3 m/s 630 mmHg 65%
    11:00 -2°C° 0 mm 4 m/s 630 mmHg 59%
    12:00 -2°C° 0 mm 4 m/s 630 mmHg 57%
    13:00 -2°C° 0 mm 4 m/s 630 mmHg 55%
    14:00 -1°C° 0 mm 4 m/s 630 mmHg 53%
    15:00 -2°C° 0 mm 4 m/s 630 mmHg 58%
    16:00 -2°C° 0 mm 3 m/s 629 mmHg 62%
    17:00 -4°C° 0 mm 3 m/s 629 mmHg 66%
    18:00 -5°C° 0 mm 3 m/s 629 mmHg 70%
    19:00 -5°C° 0 mm 3 m/s 629 mmHg 73%
    20:00 -6°C° 0 mm 3 m/s 629 mmHg 77%
    21:00 -6°C° 0 mm 3 m/s 629 mmHg 77%
    22:00 -5°C° 0 mm 2 m/s 629 mmHg 78%
    23:00 -6°C° 0 mm 2 m/s 630 mmHg 78%

    17 Novembro, Sábado

    Tempo Temperatura Precipitação Vento Pressão Humidade
    00:00 -6°C° 0 mm 2 m/s 630 mmHg 79%
    01:00 -6°C° 0 mm 2 m/s 629 mmHg 80%
    02:00 -7°C° 0 mm 2 m/s 629 mmHg 81%
    03:00 -7°C° 0 mm 2 m/s 629 mmHg 81%
    04:00 -8°C° 0 mm 2 m/s 629 mmHg 82%
    05:00 -8°C° 0 mm 2 m/s 629 mmHg 83%
    06:00 -8°C° 0 mm 2 m/s 629 mmHg 81%
    07:00 -8°C° 0 mm 2 m/s 629 mmHg 79%
    08:00 -7°C° 0 mm 2 m/s 629 mmHg 77%
    09:00 -6°C° 0 mm 2 m/s 630 mmHg 69%
    10:00 -4°C° 0 mm 2 m/s 631 mmHg 61%
    11:00 -3°C° 0 mm 2 m/s 631 mmHg 52%
    12:00 -4°C° 0 mm 3 m/s 631 mmHg 52%
    13:00 -2°C° 0 mm 3 m/s 631 mmHg 51%
    14:00 -2°C° 0 mm 3 m/s 631 mmHg 50%
    15:00 -3°C° 0 mm 2 m/s 630 mmHg 55%
    16:00 -4°C° 0 mm 2 m/s 630 mmHg 60%
    17:00 -5°C° 0 mm 2 m/s 629 mmHg 65%
    18:00 -6°C° 0 mm 2 m/s 629 mmHg 68%
    19:00 -6°C° 0 mm 2 m/s 629 mmHg 71%
    20:00 -7°C° 0 mm 2 m/s 629 mmHg 74%
    21:00 -7°C° 0 mm 2 m/s 629 mmHg 76%
    22:00 -8°C° 0 mm 2 m/s 629 mmHg 77%
    23:00 -8°C° 0 mm 2 m/s 629 mmHg 79%

    18 Novembro, Domingo

    Tempo Temperatura Precipitação Vento Pressão Humidade
    00:00 -8°C° 0 mm 2 m/s 628 mmHg 78%
    01:00 -8°C° 0 mm 2 m/s 628 mmHg 78%
    02:00 -8°C° 0 mm 2 m/s 628 mmHg 77%
    03:00 -8°C° 0 mm 2 m/s 627 mmHg 78%
    04:00 -8°C° 0 mm 2 m/s 627 mmHg 78%
    05:00 -8°C° 0 mm 2 m/s 627 mmHg 79%
    06:00 -8°C° 0 mm 2 m/s 627 mmHg 77%
    07:00 -7°C° 0 mm 2 m/s 627 mmHg 76%
    08:00 -7°C° 0 mm 2 m/s 627 mmHg 74%
    09:00 -5°C° 0 mm 2 m/s 627 mmHg 69%
    10:00 -4°C° 0 mm 2 m/s 627 mmHg 64%
    11:00 -2°C° 0 mm 2 m/s 627 mmHg 59%
    12:00 -2°C° 0.1 mm 2 m/s 627 mmHg 61%
    13:00 -2°C° 0.1 mm 2 m/s 626 mmHg 64%
    14:00 -2°C° 0.1 mm 2 m/s 625 mmHg 66%
    15:00 -3°C° 0.1 mm 2 m/s 625 mmHg 70%
    16:00 -3°C° 0.1 mm 2 m/s 624 mmHg 74%
    17:00 -4°C° 0.1 mm 2 m/s 623 mmHg 78%
    18:00 -4°C° 0.1 mm 2 m/s 623 mmHg 79%
    19:00 -2°C° 0.1 mm 1 m/s 623 mmHg 80%
    20:00 -2°C° 0.1 mm 1 m/s 622 mmHg 82%
    21:00 -2°C° 0.1 mm 1 m/s 622 mmHg 83%
    22:00 -4°C° 0.1 mm 2 m/s 621 mmHg 83%
    23:00 -4°C° 0.1 mm 2 m/s 621 mmHg 84%

    19 Novembro, Segunda-feira

    Tempo Temperatura Precipitação Vento Pressão Humidade
    00:00 -5°C° 0.2 mm 2 m/s 620 mmHg 85%
    01:00 -5°C° 0.2 mm 2 m/s 620 mmHg 86%
    02:00 -5°C° 0.2 mm 2 m/s 619 mmHg 87%
    03:00 -5°C° 0.7 mm 2 m/s 619 mmHg 88%
    04:00 -5°C° 0.7 mm 2 m/s 618 mmHg 88%
    05:00 -5°C° 0.7 mm 2 m/s 618 mmHg 88%
    06:00 -5°C° 0.9 mm 2 m/s 618 mmHg 88%
    07:00 -5°C° 0.9 mm 2 m/s 618 mmHg 88%
    08:00 -4°C° 0.9 mm 2 m/s 618 mmHg 88%
    09:00 -4°C° 0.6 mm 2 m/s 618 mmHg 87%
    10:00 -4°C° 0.6 mm 2 m/s 618 mmHg 86%
    11:00 -3°C° 0.6 mm 2 m/s 618 mmHg 84%
    12:00 -3°C° 0.2 mm 2 m/s 618 mmHg 84%
    13:00 -2°C° 0.2 mm 2 m/s 618 mmHg 83%
    14:00 -2°C° 0.2 mm 2 m/s 618 mmHg 82%
    15:00 -3°C° 0.3 mm 2 m/s 618 mmHg 85%
    16:00 -3°C° 0.3 mm 2 m/s 618 mmHg 87%
    17:00 -1°C° 0.3 mm 1 m/s 618 mmHg 90%
    18:00 -2°C° 0.8 mm 1 m/s 618 mmHg 90%
    19:00 -2°C° 0.8 mm 1 m/s 618 mmHg 91%
    20:00 -2°C° 0.8 mm 1 m/s 619 mmHg 91%
    21:00 -2°C° 0.6 mm 1 m/s 619 mmHg 91%
    22:00 -2°C° 0.6 mm 1 m/s 619 mmHg 91%
    23:00 -2°C° 0.6 mm 1 m/s 620 mmHg 91%
    Mostrar mais